EA4BCR Weather Reports


time (UTC)temp
F
wind
direction
speed
knots
gust
knots
rain 1hr
in
rain 24hr
in
rain mn
in
humidity
%
barometer
mb
20260508065056 50 0.0 0.0 0.00 0.00 0.00 10 1013.8
20260508064056 50 0.0 0.0 0.00 0.00 0.00 10 1013.9
20260508063056 50 0.0 0.0 0.00 0.00 0.00 10 1014.0
20260508062056 49 0.0 0.0 0.00 0.00 0.00 10 1013.9
20260508061056 48 0.0 0.0 0.00 0.00 0.00 10 1014.2
20260508060056 49 0.0 0.0 0.00 0.00 0.00 99 1014.2
20260508055056 48 0.0 0.0 0.00 0.00 0.00 99 1014.2
20260508054056 47 0.0 0.0 0.00 0.00 0.00 97 1014.3
20260508053056 46 0.0 0.0 0.00 0.00 0.00 98 1014.4
20260508052056 46 0.0 0.0 0.00 0.00 0.00 94 1014.1
20260508051056 47 0.0 0.0 0.00 0.00 0.00 92 1013.7
20260508045056 46 0.0 0.0 0.00 0.00 0.00 94 1014.0
20260508044057 46 0.0 0.0 0.00 0.00 0.00 93 1014.1
20260508043056 45 0.0 0.0 0.00 0.00 0.00 94 1014.1
20260508042056 47 0.0 0.0 0.00 0.00 0.00 90 1013.5
20260508041056 47 0.0 0.0 0.00 0.00 0.00 92 1013.3
20260508040056 47 0.0 0.0 0.00 0.00 0.00 92 1013.4
20260508035056 47 0.0 0.0 0.00 0.00 0.00 94 1013.5
20260508034056 46 0.0 0.0 0.00 0.00 0.00 94 1013.6
20260508033056 46 0.0 0.0 0.00 0.00 0.00 95 1013.5
20260508032056 47 0.0 0.0 0.00 0.00 0.00 94 1013.3
20260508031056 46 0.0 0.0 0.00 0.00 0.00 94 1013.5
20260508030056 48 0.0 0.0 0.00 0.00 0.00 92 1013.2
20260508025056 47 0.0 0.0 0.00 0.00 0.00 94 1013.5
20260508024056 47 0.0 0.0 0.00 0.00 0.00 94 1013.6
20260508023056 47 0.0 0.0 0.00 0.00 0.00 95 1013.7
20260508022056 46 0.0 0.0 0.00 0.00 0.00 96 1013.9
20260508021056 47 0.0 0.0 0.00 0.00 0.00 95 1013.9
20260508020056 47 0.0 0.0 0.00 0.00 0.00 96 1013.9
20260508015056 46 0.0 0.0 0.00 0.00 0.00 92 1014.0
20260508014056 47 0.0 0.0 0.00 0.00 0.00 92 1014.0
20260508013056 47 0.0 0.0 0.00 0.00 0.00 92 1014.0
20260508012056 48 0.0 0.0 0.00 0.00 0.00 92 1013.9
20260508011056 49 0.0 0.0 0.00 0.00 0.00 90 1013.9
20260508010056 48 0.0 0.0 0.00 0.00 0.00 92 1014.3
20260508005056 47 0.0 0.0 0.00 0.00 0.00 92 1014.6
20260508004056 47 0.0 0.0 0.00 0.00 0.00 93 1014.6
20260508003056 48 0.0 0.0 0.00 0.00 0.00 91 1014.5
20260508002056 48 0.0 0.0 0.00 0.00 0.00 92 1014.5
20260508001056 49 0.0 0.0 0.00 0.00 0.00 90 1014.5
20260508000056 49 0.0 0.0 0.00 0.00 0.00 91 1014.6
20260507235056 48 0.0 0.0 0.00 0.00 0.00 94 1014.9
20260507234056 48 0.0 0.0 0.00 0.00 0.00 94 1015.0
20260507233056 48 0.0 0.0 0.00 0.00 0.00 93 1015.1
20260507232056 49 0.0 0.0 0.00 0.00 0.00 92 1014.8
20260507231056 49 0.0 0.0 0.00 0.00 0.00 94 1014.9
20260507230056 49 0.0 0.0 0.00 0.00 0.00 92 1015.0
20260507225056 50 0.0 0.0 0.00 0.00 0.00 91 1014.8
20260507224056 52 0.0 0.0 0.00 0.00 0.00 87 1014.5
20260507223056 52 0.0 0.0 0.00 0.00 0.00 88 1014.6
20260507222056 52 0.0 0.0 0.00 0.00 0.00 88 1014.5
20260507221056 52 0.0 0.0 0.00 0.00 0.00 91 1014.6
20260507220056 51 0.0 0.0 0.00 0.00 0.00 94 1014.7
20260507215056 51 0.0 0.0 0.00 0.00 0.00 95 1014.7
20260507214056 52 0.0 0.0 0.00 0.00 0.00 91 1014.7
20260507213056 52 0.0 0.0 0.00 0.00 0.00 88 1014.5
20260507212056 52 0.0 0.0 0.00 0.00 0.00 89 1014.5
20260507211056 51 0.0 0.0 0.00 0.00 0.00 90 1014.6
20260507210056 52 0.0 0.0 0.00 0.00 0.00 88 1014.2
20260507205056 53 0.0 0.0 0.00 0.00 0.00 85 1013.8
20260507204056 54 0.0 0.0 0.00 0.00 0.00 83 1013.6
20260507203056 54 0.0 0.0 0.00 0.00 0.00 81 1013.3
20260507202056 55 0.0 0.0 0.00 0.00 0.00 81 1013.0
20260507201056 54 0.0 0.0 0.00 0.00 0.00 84 1012.9
20260507200056 55 0.0 0.0 0.00 0.00 0.00 79 1012.6
20260507195056 55 0.0 0.0 0.00 0.00 0.00 79 1012.5
20260507194056 56 0.0 0.0 0.00 0.00 0.00 75 1012.1
20260507193056 57 0.0 0.0 0.00 0.00 0.00 73 1011.8
20260507192056 57 0.0 0.0 0.00 0.00 0.00 73 1011.6
20260507191056 58 0.0 0.0 0.00 0.00 0.00 71 1011.3
20260507190055 58 0.0 0.0 0.00 0.00 0.00 73 1011.3
20260507185055 57 0.0 0.0 0.00 0.00 0.00 73 1011.4
20260507184055 59 0.0 0.0 0.00 0.00 0.00 69 1011.0
20260507183055 58 0.0 0.0 0.00 0.00 0.00 71 1011.2
20260507182055 58 0.0 0.0 0.00 0.00 0.00 70 1011.1
20260507181055 57 0.0 0.0 0.00 0.00 0.00 72 1011.0
20260507180056 58 0.0 0.0 0.00 0.00 0.00 71 1010.7
20260507175056 59 0.0 0.0 0.00 0.00 0.00 69 1010.4
20260507174055 59 0.0 0.0 0.00 0.00 0.00 71 1010.5
20260507173056 60 0.0 0.0 0.00 0.00 0.00 70 1010.4
20260507172056 57 0.0 0.0 0.00 0.00 0.00 73 1010.9
20260507171056 59 0.0 0.0 0.00 0.00 0.00 75 1010.5
20260507170056 60 0.0 0.0 0.00 0.00 0.00 70 1010.5
20260507165056 61 0.0 0.0 0.00 0.00 0.00 73 1010.3
20260507164055 60 0.0 0.0 0.00 0.00 0.00 75 1010.5
20260507163055 60 0.0 0.0 0.00 0.00 0.00 72 1010.4
20260507162057 60 0.0 0.0 0.00 0.00 0.00 71 1010.2
20260507161056 60 0.0 0.0 0.00 0.00 0.00 67 1010.1
20260507160057 61 0.0 0.0 0.00 0.00 0.00 66 1009.9
20260507155055 62 0.0 0.0 0.00 0.00 0.00 64 1009.6
20260507154059 62 0.0 0.0 0.00 0.00 0.00 67 1009.6
20260507153055 62 0.0 0.0 0.00 0.00 0.00 71 1009.7
20260507152055 61 0.0 0.0 0.00 0.00 0.00 68 1009.8
20260507151057 61 0.0 0.0 0.00 0.00 0.00 69 1009.6
20260507150055 63 0.0 0.0 0.00 0.00 0.00 73 1009.2
20260507145056 62 0.0 0.0 0.00 0.00 0.00 80 1009.2
20260507144055 60 0.0 0.0 0.00 0.00 0.00 77 1009.7
20260507143056 59 0.0 0.0 0.00 0.00 0.00 92 1010.2
20260507142056 59 0.0 0.0 0.00 0.00 0.00 90 1010.3
20260507141057 58 0.0 0.0 0.00 0.00 0.00 93 1010.5
20260507140055 56 0.0 0.0 0.00 0.00 0.00 10 1011.0
20260507135056 55 0.0 0.0 0.00 0.00 0.00 10 1012.0
20260507134055 55 0.0 0.0 0.00 0.00 0.00 10 1012.3
20260507133055 55 0.0 0.0 0.00 0.00 0.00 10 1012.4
20260507132055 55 0.0 0.0 0.00 0.00 0.00 10 1012.5
20260507131055 57 0.0 0.0 0.00 0.00 0.00 10 1012.3
20260507130056 55 0.0 0.0 0.00 0.00 0.00 10 1012.5
20260507125056 55 0.0 0.0 0.00 0.00 0.00 10 1012.7
20260507124055 55 0.0 0.0 0.00 0.00 0.00 10 1012.7
20260507123056 53 0.0 0.0 0.00 0.00 0.00 10 1013.2
20260507122055 53 0.0 0.0 0.00 0.00 0.00 10 1013.0
20260507121056 55 0.0 0.0 0.00 0.00 0.00 98 1012.7
20260507120055 55 0.0 0.0 0.00 0.00 0.00 94 1012.8
20260507115055 59 0.0 0.0 0.00 0.00 0.00 69 1011.2
20260507114055 61 0.0 0.0 0.00 0.00 0.00 71 1010.9
20260507113055 60 0.0 0.0 0.00 0.00 0.00 72 1010.9
20260507112055 61 0.0 0.0 0.00 0.00 0.00 71 1010.9
20260507111055 60 0.0 0.0 0.00 0.00 0.00 81 1011.4
20260507110055 59 0.0 0.0 0.00 0.00 0.00 84 1011.7
20260507105055 58 0.0 0.0 0.00 0.00 0.00 78 1012.0
20260507104055 58 0.0 0.0 0.00 0.00 0.00 66 1011.7
20260507103055 60 0.0 0.0 0.00 0.00 0.00 64 1011.3
20260507102055 60 0.0 0.0 0.00 0.00 0.00 63 1011.2
20260507101055 61 0.0 0.0 0.00 0.00 0.00 70 1011.1
20260507100055 58 0.0 0.0 0.00 0.00 0.00 72 1011.6
20260507095056 59 0.0 0.0 0.00 0.00 0.00 70 1011.5
20260507094055 59 0.0 0.0 0.00 0.00 0.00 63 1011.5
20260507093056 59 0.0 0.0 0.00 0.00 0.00 62 1011.4
20260507092055 58 0.0 0.0 0.00 0.00 0.00 64 1011.6
20260507091055 58 0.0 0.0 0.00 0.00 0.00 64 1011.5
20260507090055 58 0.0 0.0 0.00 0.00 0.00 68 1011.6
20260507085055 56 0.0 0.0 0.00 0.00 0.00 71 1011.8
20260507084055 57 0.0 0.0 0.00 0.00 0.00 70 1011.7
20260507083055 57 0.0 0.0 0.00 0.00 0.00 67 1011.4
20260507082055 57 0.0 0.0 0.00 0.00 0.00 65 1011.6
20260507081055 57 0.0 0.0 0.00 0.00 0.00 63 1011.5
20260507080055 57 0.0 0.0 0.00 0.00 0.00 62 1011.5
20260507075056 58 0.0 0.0 0.00 0.00 0.00 63 1011.3
20260507074055 56 0.0 0.0 0.00 0.00 0.00 65 1011.6
20260507073055 56 0.0 0.0 0.00 0.00 0.00 64 1011.6
20260507072056 57 0.0 0.0 0.00 0.00 0.00 61 1011.4
20260507071055 56 0.0 0.0 0.00 0.00 0.00 69 1011.6
20260507070055 56 0.0 0.0 0.00 0.00 0.00 67 1011.5